STARLINK-1546 (46346 NORAD) Tracking and Keplerian Element Data

This shows tracking and keplerian element data for the satellite.

Feedback or suggestion? Click here.




ElementValue
Catalog46346
NameSTARLINK-1546
Epoch Orbit178
Epoch Day268.91668981
Epoch Year2020
RAAN324.4413
Inclination53.0009
Eccentricity0.0001517
Argument of Perigee58.1744
Mean Anonmoly174.7859
Mean Motion15.62747071
Decay Rate0.0002235
L11 46346U 20062X 20268.91668981 .00022350 00000-0 24930-3 0 9992
L22 46346 53.0009 324.4413 0001517 58.1744 174.7859 15.62747071 1783

Live tracking and technical data element details for STARLINK-1546 (NORAD 46346). STARLINK-1546 can be tracked NOW for your location showing map with azimuth and elevation plus other details from your city location.

Track the satellite on the map from your city or location and see movement details for azimuth, elevation, latitude, longitude, range, height, and movement on the map or in text.







IsCatalogInMostPopularTable: catalog: 46346, numindb: 2
Update: records affected: 1



GetName: 46346 STARLINK-1546

Hit Count: updated at: Sat, 26 Sep 2020 15:29:16 GMT